Wind_Speed
21 17 17 20 21 22 22 23 22 20 18 19 19 18 17 16 15 15 15 13 13 11 10 9 9 9 9 9 10 10 11 12 12 12 12 12 12 12 11 11 11 11 11 10 10 10 9 8 7 6 6 5 4 5 6 6 6 6 6 6 7 8 9 9 9 10 10 10 11 11 11 12 12 13 13 13 14 15 15 16 17 18 19 19 20
26 25 24 26 25 25 26 25 24 22 20 19 18 18 18 17 16 16 16 16 15 14 13 11 11 11 11 10 10 9 9 10 11 11 12 12 13 14 14 13 13 13 13 13 13 13 12 11 10 10 9 9 8 8 9 9 9 9 9 9 10 11 12 12 13 13 14 14 14 14 14 14 14 14 14 14 15 16 17 19 20 21 22 22 22
32 34 34 33 31 29 28 26 26 25 24 21 19 19 19 19 18 17 17 17 17 16 15 14 14 14 13 13 12 12 11 11 11 11 11 11 12 13 14 15 15 14 14 15 16 16 16 15 14 14 13 13 13 12 12 12 12 12 12 12 13 14 14 14 15 15 16 16 16 16 16 16 16 15 15 14 15 17 18 20 21 23 24 24 24
37 38 36 35 33 31 28 26 26 28 28 26 24 21 20 21 20 19 18 18 18 18 17 16 16 16 17 17 15 14 14 14 14 13 12 12 11 11 12 13 14 14 14 15 15 16 17 18 18 17 16 16 17 16 15 14 14 14 15 16 16 16 16 16 16 17 17 17 17 17 17 17 17 16 16 16 18 19 19 20 22 23 24 25 25
36 34 31 30 32 33 32 31 32 33 31 29 27 24 23 22 21 21 19 18 18 18 17 19 20 20 19 20 18 17 16 16 17 16 14 14 13 12 12 12 13 13 14 14 13 14 15 16 17 18 18 19 20 20 18 17 17 16 17 17 17 17 17 17 18 18 18 19 19 18 19 19 18 18 18 19 20 21 22 23 24 25 26 27 28
35 31 28 31 36 38 36 35 36 36 31 28 27 27 26 25 24 24 24 24 23 22 21 23 26 25 23 22 22 20 19 18 18 17 16 15 15 15 15 15 15 15 16 15 14 14 14 14 14 15 16 19 20 20 20 18 17 17 17 18 18 18 18 18 18 19 20 21 21 21 21 21 20 20 20 21 22 24 25 26 27 28 29 31 32
38 36 35 38 42 42 40 35 35 34 31 31 33 35 35 32 31 32 33 34 32 29 28 28 29 27 26 25 25 23 22 20 20 19 19 18 18 19 19 18 18 18 18 18 17 16 15 14 14 14 15 16 17 18 18 17 17 16 16 17 17 18 18 17 18 20 21 22 22 22 21 20 20 21 23 24 26 28 30 30 31 32 34 35 35
43 42 42 44 45 45 43 39 37 37 37 39 39 38 37 36 36 38 39 38 36 33 32 31 29 27 27 26 27 26 24 23 23 23 22 22 21 20 20 21 21 19 19 20 20 19 17 16 15 16 16 16 16 17 18 17 16 15 15 17 18 19 18 18 18 20 21 22 22 21 20 19 20 23 26 28 30 31 33 34 34 35 36 37 37
47 45 44 46 46 47 45 42 41 41 41 41 40 37 36 37 39 41 39 38 38 36 34 32 30 29 28 28 28 27 26 26 26 26 26 26 24 22 23 24 23 21 21 21 22 21 20 18 18 18 17 17 18 19 19 18 17 16 16 19 21 21 19 18 19 20 21 22 22 21 22 23 24 27 29 31 33 34 35 37 37 37 37 38 39
47 43 45 48 48 49 48 45 43 43 43 43 41 39 39 38 39 40 40 38 38 37 35 33 31 31 30 29 29 28 28 28 29 29 28 28 27 25 25 25 24 23 23 22 22 22 21 21 20 19 19 19 20 22 20 19 20 20 20 21 23 23 22 21 21 20 21 23 24 25 27 28 28 30 31 33 35 36 37 38 39 40 40 41 42
46 40 44 49 48 49 51 49 46 45 45 45 43 41 40 38 38 41 41 40 39 38 36 33 31 32 33 33 31 30 30 30 30 31 30 30 29 28 27 25 24 24 24 23 23 23 22 21 21 21 22 22 23 24 23 22 23 24 23 24 25 26 27 27 26 24 24 26 29 32 33 32 31 31 32 33 35 37 38 40 41 42 44 44 45
47 42 44 47 47 50 52 51 49 47 46 47 45 42 41 41 41 42 41 41 40 39 37 34 32 33 35 35 34 33 32 32 32 32 31 30 30 30 28 25 23 23 23 24 24 24 24 23 23 23 23 23 23 25 26 26 27 26 26 27 28 29 30 31 31 31 32 34 37 38 37 35 34 34 35 37 38 39 41 42 43 45 46 48 49
48 46 47 46 46 50 53 52 50 48 45 45 45 44 43 43 43 44 42 41 41 40 37 35 34 35 36 36 36 35 34 34 34 32 30 30 31 32 30 28 25 24 24 25 26 26 26 25 24 24 24 23 24 26 27 28 29 28 29 30 31 32 32 33 34 36 37 39 39 39 38 37 37 38 40 41 42 44 45 46 47 48 49 50 51
50 49 51 49 46 49 51 51 49 47 44 42 42 44 46 45 44 44 43 42 40 37 35 36 37 37 38 38 37 36 35 34 33 33 32 32 32 33 32 30 28 27 27 27 28 29 28 27 26 27 27 27 27 27 28 29 30 31 32 32 32 33 34 35 36 38 39 39 39 39 40 40 41 42 43 44 46 48 49 49 50 50 51 51 51
57 53 52 50 47 48 49 48 48 47 44 38 36 39 44 47 46 45 44 42 36 30 28 32 36 38 39 38 37 37 36 34 34 34 35 35 35 35 34 32 32 32 32 32 31 31 31 30 29 29 30 30 29 29 29 31 32 33 33 34 33 33 34 35 36 38 38 39 39 40 42 43 44 45 46 48 49 50 50 50 51 51 51 51 50
64 61 57 53 48 47 49 48 47 47 43 39 39 43 45 46 47 46 43 39 34 30 31 33 37 40 41 39 38 38 37 36 36 37 38 37 37 37 36 35 35 34 35 36 35 34 34 33 32 31 32 32 31 31 31 32 33 33 33 33 32 32 32 34 35 37 38 39 41 42 44 45 46 48 49 49 50 50 50 51 51 51 51 50 49
63 64 62 59 54 50 50 50 50 50 48 45 47 49 48 47 47 46 43 37 34 36 38 40 41 41 40 40 41 40 38 37 37 39 40 40 39 38 38 38 37 36 35 36 37 36 35 33 34 35 36 35 34 35 35 35 34 33 32 32 33 33 35 36 37 38 39 41 43 44 45 46 48 49 49 50 50 51 51 51 50 50 50 49 49
59 61 62 62 60 55 52 52 53 55 57 56 54 52 51 51 51 50 47 43 40 39 40 41 42 42 41 42 44 42 40 39 39 40 42 41 40 40 41 41 41 39 38 37 38 38 36 36 36 37 38 38 38 39 39 38 37 36 35 36 38 39 41 42 43 43 43 44 45 46 46 47 49 50 50 51 51 51 51 50 50 50 50 49 47
54 58 61 62 62 59 54 52 51 52 55 58 58 56 53 54 56 55 53 52 51 49 46 44 45 47 46 46 46 45 43 42 42 43 43 41 41 41 42 43 43 43 42 42 42 41 40 38 37 38 38 40 41 42 42 42 41 40 41 43 45 46 46 47 48 48 48 48 49 49 49 50 51 51 52 52 52 51 51 50 50 50 49 48 46
49 56 61 62 63 62 59 55 52 50 50 51 53 53 52 53 57 57 55 54 55 55 53 49 49 50 50 48 47 46 45 45 45 46 45 43 41 40 40 41 42 43 43 44 45 45 44 42 40 39 40 41 43 44 45 45 45 46 47 49 50 50 51 51 52 52 52 52 51 51 51 51 51 52 52 51 51 51 50 50 50 49 48 47 46
47 56 60 60 61 62 61 58 53 50 49 49 49 50 50 52 55 56 54 53 54 54 54 53 52 53 52 51 49 47 47 48 49 50 51 49 46 44 43 42 43 43 45 46 48 49 48 47 45 44 44 45 46 47 48 49 49 50 51 52 53 53 54 54 54 54 53 53 53 53 53 52 52 52 51 50 50 50 50 49 49 48 47 46 45
47 54 57 56 57 59 59 56 52 48 47 48 48 49 50 51 54 55 55 54 53 54 54 54 54 55 55 55 53 51 50 51 53 55 56 56 54 52 50 48 47 47 47 48 50 52 52 52 51 50 49 49 49 50 50 51 51 52 52 52 53 54 54 54 54 54 54 54 54 54 54 53 52 51 50 50 49 49 48 48 47 46 46 45 46
48 52 56 55 54 55 55 54 51 49 48 48 49 50 50 51 53 54 55 56 55 55 56 56 57 58 59 60 59 58 56 56 57 59 61 61 60 59 57 55 54 53 52 52 52 53 53 54 54 54 53 52 51 51 50 51 51 52 52 53 53 54 54 54 54 54 54 55 55 54 54 53 52 50 50 49 48 47 46 45 44 45 46 46 47
51 53 56 56 54 55 56 55 53 51 51 51 50 51 52 52 53 53 54 54 55 55 56 57 58 59 60 61 62 61 60 59 60 62 62 63 62 62 61 60 59 58 57 57 55 54 53 53 54 55 55 54 53 52 52 52 53 53 54 54 54 54 54 54 54 54 54 55 54 54 53 52 51 50 49 48 47 46 45 44 44 46 47 47 47
55 56 56 55 53 53 55 55 54 52 51 50 50 51 52 52 52 52 52 52 52 52 53 53 55 56 58 59 60 61 62 62 63 64 64 64 64 64 63 63 61 61 60 58 57 55 53 53 53 54 54 54 53 53 53 53 53 54 54 54 54 54 54 55 55 55 55 55 54 53 52 51 50 49 48 47 46 46 45 45 46 47 47 47 46
55 56 56 54 52 51 50 51 51 48 46 44 44 46 49 51 51 50 50 50 50 50 50 51 52 53 55 57 58 59 60 61 62 63 64 64 63 62 61 59 58 57 56 55 54 53 52 51 51 51 51 52 52 52 53 53 54 55 55 55 55 55 56 56 57 57 56 55 54 53 51 50 48 47 46 46 46 46 47 48 49 49 48 46 45
54 54 56 55 52 50 48 47 46 43 39 35 34 36 40 45 47 46 45 45 44 44 45 46 48 50 52 54 55 56 57 58 58 59 60 60 60 59 57 56 55 54 54 53 53 52 52 51 51 50 51 51 52 52 53 54 55 56 56 56 57 57 57 57 57 57 57 56 54 52 50 48 47 46 45 46 47 48 50 50 49 48 46 45 44
52 54 56 55 52 49 47 45 44 41 37 31 28 27 28 31 33 34 34 35 34 33 33 34 36 38 39 41 44 45 46 47 47 48 50 51 53 54 55 55 55 55 55 54 54 53 53 52 52 52 52 53 53 54 55 55 56 56 57 57 57 57 58 58 58 57 56 55 53 50 48 46 45 45 46 47 48 49 48 47 46 45 43 43 43
51 55 57 54 51 49 48 46 44 41 37 31 28 26 25 24 23 23 23 24 25 26 28 29 30 31 32 33 34 35 36 36 37 38 40 42 45 48 50 53 54 55 56 55 55 55 55 55 55 55 55 55 55 55 56 56 56 57 57 57 58 58 58 58 58 57 55 52 49 47 45 44 44 45 45 45 44 43 42 42 41 40 40 40 41
53 56 57 53 51 50 49 46 43 40 37 33 30 28 27 27 25 24 23 24 25 26 28 30 32 33 34 34 34 34 35 35 35 37 39 40 42 45 48 51 53 55 56 56 56 56 57 57 56 56 56 56 56 56 56 56 56 56 57 58 59 59 59 58 57 54 51 48 46 44 43 43 42 41 40 38 38 37 37 37 38 38 39 40 41
54 57 57 53 50 50 49 45 41 39 38 35 31 28 26 25 24 23 24 26 26 26 29 31 33 35 36 36 36 35 35 34 35 36 38 40 42 44 47 50 53 56 58 58 58 58 57 57 56 56 56 56 56 56 56 57 57 58 59 59 59 59 57 55 52 50 47 45 43 42 40 39 37 36 35 35 35 36 37 37 38 39 40 42 43
54 58 58 54 51 50 48 44 41 39 38 35 31 27 25 23 22 22 22 23 23 25 29 32 34 37 38 36 35 34 33 32 32 32 33 35 37 39 41 45 49 53 56 58 60 60 60 59 58 57 57 56 56 56 57 57 58 58 59 58 57 55 53 50 47 45 43 41 40 38 36 36 35 36 36 37 37 38 39 40 41 43 43 44 45
54 57 58 56 54 52 49 45 42 40 38 35 31 29 26 25 24 23 23 23 25 27 29 32 34 36 37 34 33 32 30 29 28 27 27 28 29 30 32 35 38 42 45 49 52 54 55 55 54 53 53 53 53 53 53 54 55 55 55 53 52 49 47 45 42 40 38 37 36 35 35 36 37 38 38 39 40 41 42 43 44 45 45 45 45
52 55 57 57 56 54 51 48 45 43 40 36 34 32 30 29 28 26 25 25 27 29 31 32 33 34 35 34 32 31 29 27 26 25 25 25 25 25 26 27 30 32 35 38 41 44 46 47 47 47 46 46 47 47 48 49 50 50 49 48 46 44 42 40 38 36 35 35 35 36 36 37 38 39 40 41 42 43 44 44 44 44 44 44 44
52 54 55 56 56 55 53 49 47 45 42 39 37 35 33 32 32 30 28 28 28 30 31 32 32 32 32 32 31 29 27 25 24 24 24 24 23 23 23 24 26 27 29 31 34 36 38 40 41 41 41 41 41 42 43 44 44 44 44 43 41 39 38 37 36 35 35 36 36 37 38 39 40 41 42 42 42 42 42 42 42 42 42 42 42
54 54 54 54 54 55 53 51 49 47 44 42 41 39 37 36 35 32 31 29 29 29 29 30 30 29 28 28 28 27 25 24 24 24 24 23 22 22 21 22 23 24 25 27 28 30 31 33 34 35 35 35 36 37 38 39 39 39 38 38 37 36 36 35 36 36 37 38 38 39 40 41 41 42 41 41 40 40 40 40 40 41 42 42 43
57 57 55 52 52 54 54 54 52 50 47 46 44 43 41 39 36 34 34 32 29 26 25 25 26 27 27 27 27 25 24 23 22 22 23 23 22 22 21 21 21 22 23 24 25 26 27 28 30 31 32 33 34 34 34 34 35 35 34 34 35 35 36 37 38 39 39 40 41 42 42 42 41 41 40 40 40 40 40 41 42 43 44 45 47
59 60 57 53 52 52 54 55 55 53 51 49 48 45 43 41 40 40 39 34 28 25 24 22 22 23 23 23 23 22 21 21 21 21 22 22 22 22 22 22 23 24 24 25 26 26 27 28 29 30 31 32 33 34 34 33 33 33 33 34 35 36 37 38 39 40 41 41 42 42 41 41 40 39 39 40 41 41 42 44 45 46 47 49 51
62 62 59 56 53 52 52 53 55 55 54 52 50 47 45 45 45 43 38 31 27 27 26 25 24 23 21 20 20 21 23 25 26 27 27 26 26 26 27 27 27 28 29 30 31 31 32 33 33 33 32 32 33 33 34 34 34 34 34 34 35 37 38 39 39 40 40 40 40 40 40 39 39 39 39 41 42 43 45 46 48 49 51 53 54
64 65 64 60 56 53 51 52 54 55 55 54 53 52 50 47 44 39 33 30 30 30 30 30 30 28 26 25 25 27 29 31 33 34 34 34 34 34 33 32 31 32 32 33 34 35 36 37 38 38 37 37 36 36 36 36 36 36 36 36 36 37 37 38 38 38 37 37 38 38 39 39 40 41 42 43 44 45 47 49 51 52 54 55 57
65 67 67 64 60 56 54 55 55 56 56 56 57 56 53 47 41 36 33 34 34 34 34 35 35 35 34 34 33 33 35 36 37 38 39 39 39 38 37 36 35 34 34 34 35 36 38 39 40 41 42 42 43 43 43 42 42 40 39 38 38 37 37 37 38 39 40 41 42 43 45 45 46 47 47 48 48 49 50 51 53 55 56 57 58
66 67 69 68 65 61 59 59 58 58 57 58 60 59 55 50 44 40 37 37 38 38 39 41 41 41 40 40 40 41 42 43 42 42 42 41 39 38 38 38 37 37 36 37 38 39 40 42 43 44 45 46 47 47 48 48 48 47 46 45 44 44 44 45 46 47 48 49 51 51 52 53 53 53 53 53 52 52 52 53 54 55 56 57 57
69 68 70 71 69 66 65 64 62 60 59 60 61 60 57 52 48 44 40 40 43 44 44 44 44 43 43 42 43 45 47 48 47 46 44 41 40 39 39 39 39 38 38 39 40 42 44 45 46 48 49 49 50 50 50 50 51 51 50 50 50 51 52 52 54 55 55 56 56 56 56 57 57 57 56 55 54 53 53 53 54 55 56 57 56
73 72 72 72 71 69 68 67 65 64 63 63 64 64 60 54 50 46 43 45 48 50 48 46 46 46 46 46 47 51 54 55 53 51 47 44 43 43 43 42 42 41 42 43 44 46 48 49 50 52 53 54 55 55 55 54 54 53 52 52 53 54 54 54 55 57 57 58 58 58 58 58 57 57 56 55 54 54 54 55 56 57 58 57 56
76 76 75 74 73 71 70 68 67 67 66 66 67 67 63 57 52 49 47 50 53 55 54 52 52 54 54 54 55 58 61 62 61 58 55 53 51 50 49 49 49 49 50 52 53 54 55 56 56 57 58 60 61 61 60 58 57 56 56 57 58 58 57 57 57 58 58 59 58 58 58 57 56 56 56 55 55 55 56 57 58 59 59 59 58
78 79 78 77 76 74 71 68 67 68 68 68 69 69 64 57 54 52 51 52 55 57 58 58 59 61 61 62 62 64 66 67 67 66 65 64 63 61 60 59 59 59 61 62 63 63 63 64 64 63 64 64 64 63 63 62 61 61 61 62 62 61 60 59 59 60 60 60 59 58 57 56 56 57 57 57 57 58 58 59 59 59 59 59 60
79 80 80 79 78 77 75 71 69 69 69 69 72 73 68 62 58 57 58 59 60 61 62 63 64 67 70 71 72 72 72 72 72 72 71 71 71 70 69 68 67 68 68 68 68 68 68 68 69 69 68 66 64 64 65 65 65 65 64 63 62 62 61 61 60 61 61 60 59 57 57 57 58 59 58 58 58 59 59 59 58 59 59 60 61
81 81 81 80 79 79 79 76 73 72 72 72 74 77 76 73 69 67 67 67 69 70 72 73 75 77 78 79 80 79 78 77 77 77 77 76 76 75 74 73 73 73 74 73 72 71 70 70 71 72 71 68 67 66 66 67 67 67 66 65 64 64 63 62 61 61 61 60 59 58 58 59 60 60 59 59 59 59 59 58 59 60 60 61 62
85 83 82 82 82 82 82 80 78 76 75 75 77 78 80 81 81 80 79 78 77 78 80 82 83 84 84 84 85 84 83 82 82 81 80 80 79 78 76 76 76 75 73 72 71 71 70 70 71 72 72 71 69 67 67 67 67 67 66 66 65 65 64 63 62 62 62 61 61 61 61 62 63 62 60 59 59 59 60 60 60 61 62 62 63
92 89 86 85 84 83 83 83 82 81 80 80 80 81 82 83 84 85 86 86 86 86 87 88 89 89 89 89 90 89 88 87 86 85 84 83 82 81 80 79 73 66 61 62 63 64 65 67 69 70 71 71 70 69 68 67 66 66 66 66 66 66 65 64 63 64 64 64 65 65 66 66 66 64 62 60 61 62 63 63 63 64 64 65 66
94 93 92 90 89 87 86 86 86 85 85 85 85 85 85 86 86 87 88 89 90 92 92 93 93 93 93 93 92 92 90 90 89 88 88 87 86 86 85 80 70 61 58 60 61 61 61 62 63 65 66 68 68 69 68 67 66 66 66 67 67 67 66 66 66 66 66 67 67 68 69 70 68 66 63 62 64 66 67 67 67 67 66 66 67
Wind_Direction
207 218 235 243 249 250 248 247 246 245 244 241 241 241 235 230 230 231 233 232 232 234 236 238 238 235 231 229 231 231 229 230 230 230 228 223 220 217 215 213 212 210 209 208 207 206 208 213 218 224 228 233 246 263 270 268 262 261 263 271 280 284 285 281 275 272 271 270 270 272 275 279 283 286 289 293 294 294 293 291 290 289 288 288 288
193 200 213 224 236 245 246 244 242 241 242 242 243 244 242 238 237 237 237 237 237 239 241 243 242 241 240 239 239 236 231 230 232 236 239 237 233 230 228 228 227 227 227 228 228 228 228 231 237 244 251 256 263 272 280 279 274 270 272 279 285 287 288 287 286 284 282 280 279 280 281 282 283 286 290 295 297 296 294 293 293 292 291 291 292
199 199 203 208 215 226 235 239 241 240 238 238 241 246 248 246 242 241 239 237 237 240 243 245 246 247 247 245 243 241 235 233 236 239 243 244 242 238 235 236 238 240 241 242 244 245 245 247 249 253 258 261 265 268 274 278 277 274 277 282 286 287 286 287 287 286 285 284 284 285 287 287 286 286 289 294 298 300 299 299 297 296 296 295 295
212 207 206 206 209 216 224 231 239 241 239 236 239 246 252 250 248 247 245 240 238 240 244 247 248 248 248 247 244 243 240 238 240 242 244 244 244 241 237 239 243 247 250 251 253 255 256 257 258 259 262 264 264 266 270 275 276 275 278 283 286 286 286 286 286 285 284 284 284 285 286 286 285 284 286 290 294 298 300 301 300 299 298 298 297
218 217 215 215 217 218 216 216 222 228 232 232 235 242 249 250 249 249 250 248 243 242 247 252 253 249 245 243 243 244 244 242 241 242 242 241 243 245 245 244 246 248 253 255 257 261 263 263 263 262 262 264 265 267 272 276 277 277 278 282 283 283 282 283 283 283 283 283 283 283 282 281 282 284 287 290 294 296 298 301 302 301 300 298 295
219 218 217 224 228 223 216 215 216 217 222 226 228 233 235 238 240 240 240 240 236 231 231 239 246 246 242 240 240 243 246 245 241 239 238 239 242 246 249 251 252 251 253 256 259 262 264 267 269 267 265 266 267 269 270 272 272 272 274 276 277 277 277 279 280 280 281 283 285 285 283 280 281 284 288 291 293 295 296 299 300 300 299 298 296
216 210 210 220 227 222 215 217 219 216 215 218 222 223 220 221 225 227 226 226 226 222 219 224 234 239 239 239 239 241 244 244 239 233 231 233 238 242 245 248 251 253 255 259 262 263 265 267 268 268 267 269 269 267 264 263 263 266 271 274 275 276 276 277 277 277 280 286 290 292 289 285 285 287 291 294 295 295 295 297 297 297 298 299 298
213 209 210 218 224 220 214 216 219 216 212 214 219 220 216 217 222 225 225 225 226 225 223 224 230 234 236 238 239 240 241 241 237 231 228 231 236 241 243 246 249 253 257 262 265 266 269 272 272 269 267 268 268 265 261 262 265 271 280 284 282 279 278 278 278 279 283 288 291 293 293 292 291 291 293 294 293 292 292 293 294 295 296 297 297
217 214 214 218 221 219 215 216 219 217 213 216 219 219 219 221 224 226 228 228 227 227 227 228 230 232 234 236 238 240 240 240 237 234 233 236 239 243 246 248 250 251 253 257 262 264 268 274 278 277 273 269 266 264 265 269 272 277 285 286 283 281 283 284 285 285 287 290 290 293 297 295 292 291 291 290 289 288 289 290 292 293 294 294 294
219 219 221 221 221 219 216 217 219 217 215 217 220 219 220 224 227 228 229 229 229 229 229 230 233 235 235 236 236 238 239 239 238 238 238 240 241 244 249 253 254 254 255 257 259 261 264 270 275 278 277 271 266 266 268 270 272 275 280 282 283 285 288 290 291 288 284 284 286 291 295 294 291 289 289 289 290 290 290 290 291 291 292 293 293
218 222 227 226 223 220 218 218 219 218 217 218 219 218 217 222 227 228 228 230 233 232 230 231 236 238 238 236 235 236 239 240 239 238 239 240 242 244 249 255 256 255 257 259 258 260 264 267 271 274 275 272 267 266 266 267 269 273 279 284 287 289 290 291 292 288 283 282 285 290 294 294 291 288 288 290 292 292 293 292 292 292 292 293 292
215 222 229 228 225 222 219 218 219 219 218 219 220 218 217 221 225 226 227 230 234 234 232 232 236 238 236 235 234 236 240 242 241 239 239 240 242 244 246 250 250 250 254 257 256 259 262 263 266 269 271 270 267 264 264 265 268 273 279 285 287 287 286 287 287 287 286 286 288 291 293 293 291 290 290 292 294 295 295 295 294 293 293 292 292
212 222 228 228 227 223 219 218 220 219 219 222 222 220 218 221 224 226 228 231 233 234 233 234 237 237 235 233 234 236 239 243 244 243 242 241 242 244 245 245 245 247 253 255 256 259 261 262 264 267 267 267 266 264 263 264 268 273 279 284 285 284 284 283 283 283 284 285 287 290 292 292 292 291 292 294 295 297 297 297 296 294 293 293 293
210 221 225 224 224 222 217 217 219 219 220 223 226 226 224 222 223 224 227 229 230 233 236 238 239 238 235 233 234 236 239 243 244 243 242 242 242 244 245 244 245 247 251 254 254 255 260 264 267 267 266 266 266 266 265 266 269 273 277 280 281 282 283 282 282 282 283 285 288 290 293 293 293 293 294 295 296 297 297 296 295 294 294 294 294
211 218 220 219 219 218 215 215 216 217 218 220 223 226 226 223 222 223 225 225 225 228 234 237 237 235 233 232 232 234 238 242 243 241 240 239 239 241 242 244 245 247 249 252 251 252 258 265 268 267 265 266 268 269 268 269 272 275 277 279 280 282 283 284 284 285 286 288 290 291 292 293 293 293 294 294 295 295 295 294 294 293 293 294 294
213 217 218 217 216 215 214 215 215 213 213 216 219 220 221 222 221 221 221 220 219 221 227 231 232 231 231 230 230 233 237 240 240 239 238 239 238 238 240 242 245 248 251 254 255 256 260 263 266 267 266 266 266 268 270 273 276 278 280 281 280 280 281 283 286 287 287 288 289 289 290 290 290 291 292 293 293 293 293 292 292 291 292 292 292
216 218 220 219 218 216 215 216 216 212 211 216 219 219 218 221 221 219 216 216 219 223 230 233 231 229 230 230 231 233 235 238 239 239 240 240 238 238 240 241 244 249 254 258 259 259 260 262 266 267 266 264 264 266 269 271 274 275 276 277 278 279 281 283 286 287 286 286 286 287 287 288 289 290 291 292 292 292 291 290 290 290 290 290 291
219 220 220 220 220 219 217 216 216 215 216 220 222 222 221 221 221 218 216 217 221 226 232 233 230 226 227 229 231 233 233 235 238 240 241 241 241 242 244 244 245 248 253 255 256 256 258 262 266 265 263 263 263 266 268 270 270 269 271 274 279 282 283 284 286 288 288 287 287 288 288 289 290 290 291 291 291 290 289 289 288 289 289 289 290
222 223 223 222 222 221 220 218 215 215 218 222 225 227 226 222 220 219 220 222 225 228 232 234 230 227 227 229 231 233 234 235 237 239 240 241 244 248 248 247 248 249 249 251 252 254 258 262 263 261 261 261 263 265 267 268 268 268 269 274 279 281 282 284 286 288 289 290 290 291 291 291 290 290 290 289 289 289 288 288 288 288 288 289 289
223 224 224 224 224 224 225 224 222 221 222 224 227 228 226 222 219 220 223 225 228 230 233 234 232 231 230 230 232 236 238 238 239 239 239 242 247 251 251 250 250 250 249 249 251 254 258 261 261 259 259 260 260 262 263 264 265 266 269 274 277 280 282 284 285 286 288 289 290 290 290 290 289 289 289 288 288 288 288 287 287 287 287 287 287
222 223 223 224 225 226 227 228 228 227 227 228 228 228 226 223 221 222 225 227 229 231 233 234 233 233 232 233 235 240 243 242 240 239 240 243 248 253 255 255 254 253 253 252 253 256 258 260 260 260 259 259 259 260 261 262 264 266 269 272 275 277 279 281 283 284 286 287 288 288 288 287 286 286 287 286 286 286 286 286 286 286 286 286 287
220 221 221 223 224 225 227 227 226 226 226 226 227 227 227 225 224 225 228 230 231 232 234 235 235 235 236 237 240 244 246 245 243 242 242 244 248 254 258 259 258 257 256 256 256 257 258 259 260 261 261 261 262 262 263 264 266 268 270 273 275 276 278 280 282 284 285 286 286 286 286 286 285 285 284 284 283 283 284 285 285 286 287 288 288
218 218 218 220 222 224 225 224 222 222 223 224 226 226 227 227 227 228 229 231 233 234 235 236 237 238 240 242 244 246 247 247 246 244 244 246 250 256 260 261 262 262 261 261 261 261 261 261 262 262 263 263 264 265 266 267 269 271 273 275 276 278 279 281 282 284 284 285 285 286 286 285 284 283 282 282 281 281 282 283 284 286 287 288 289
217 216 215 216 219 222 224 223 220 219 220 222 224 226 226 227 227 228 229 231 233 235 236 238 240 241 242 244 245 246 246 247 246 246 247 250 254 259 263 265 267 267 266 265 265 265 264 264 264 264 264 264 265 266 268 270 272 273 275 276 278 279 280 281 282 283 284 285 286 286 285 284 283 282 281 280 279 279 280 281 283 285 286 288 289
217 216 214 214 215 217 220 220 219 218 219 222 224 226 227 228 228 229 230 232 234 236 238 240 242 244 245 245 246 246 246 247 247 249 251 254 258 262 265 267 267 267 266 265 265 265 265 265 265 265 265 265 266 268 270 271 272 274 275 276 278 279 281 282 283 285 286 286 286 285 284 283 282 281 280 279 279 279 280 281 282 284 286 287 287
218 218 215 213 211 210 212 214 216 216 218 221 225 228 228 228 228 229 230 232 235 237 240 242 244 246 247 248 248 248 248 249 250 251 253 255 258 260 261 262 262 262 263 263 263 263 264 264 265 265 266 266 267 268 270 271 272 273 275 276 278 280 281 283 284 285 286 286 285 283 282 281 280 279 279 279 279 280 281 283 285 286 286 285 284
218 218 216 215 213 210 209 211 212 212 212 214 219 224 226 226 226 227 229 231 235 238 242 244 247 248 250 251 252 252 252 253 253 254 255 256 257 258 259 260 261 261 262 262 263 263 264 265 265 266 266 267 268 269 270 271 272 274 275 277 279 280 282 283 285 285 285 285 283 282 281 279 278 277 277 278 279 281 283 285 286 285 284 283 282
218 218 216 215 214 211 209 209 209 208 206 206 206 210 215 218 220 223 226 229 233 237 242 245 247 249 250 250 251 251 252 254 255 257 258 259 261 262 263 264 265 265 265 265 265 265 265 266 266 267 267 268 269 270 271 272 273 275 276 278 280 281 283 284 285 285 285 284 283 281 280 278 277 277 278 279 281 283 284 284 284 284 283 282 282
216 215 214 213 213 211 209 208 206 207 207 202 196 196 199 203 207 212 219 226 232 237 241 243 244 245 245 246 246 246 247 250 253 256 259 261 263 265 266 267 267 267 267 266 266 266 265 266 266 266 266 266 267 269 270 272 274 275 277 279 281 282 284 285 285 284 284 283 282 281 279 278 278 279 280 281 282 283 283 283 283 283 283 282 283
214 212 211 211 212 211 209 206 207 209 209 201 194 193 196 200 204 209 217 227 234 241 248 253 253 252 250 247 245 245 246 247 250 253 256 259 262 264 265 266 266 266 265 265 264 264 264 264 265 265 265 266 267 269 271 272 274 276 278 280 281 282 283 283 283 283 283 282 281 280 279 279 279 280 281 282 283 284 284 284 284 284 284 284 285
212 211 210 210 211 210 208 207 208 210 208 203 199 200 204 207 210 214 222 231 240 251 260 264 265 263 259 253 247 246 246 247 249 251 253 256 259 261 263 263 264 263 263 263 263 262 263 264 265 266 267 269 270 272 273 275 277 278 279 280 281 281 281 281 281 281 281 281 281 280 280 280 280 281 282 283 284 285 285 285 285 285 285 286 286
212 211 210 209 209 208 208 209 209 208 205 204 203 206 210 214 218 221 228 238 249 259 264 266 267 266 263 256 250 248 248 248 249 251 252 254 257 259 261 262 263 263 263 263 262 263 263 264 266 267 269 271 272 274 275 277 278 278 279 279 279 279 279 280 280 280 280 280 280 280 280 281 281 282 283 284 285 285 285 286 286 286 287 287 288
212 211 211 210 209 210 211 211 209 205 205 206 207 209 214 219 223 226 230 240 249 256 260 263 264 262 258 253 249 248 249 250 252 254 256 257 259 261 263 265 266 267 267 266 266 265 265 265 266 267 268 270 272 274 275 276 276 277 277 277 277 278 278 278 278 278 278 278 278 279 280 280 281 282 283 284 285 286 286 287 287 288 288 288 288
212 212 211 211 212 213 214 212 207 205 207 208 209 211 214 219 223 225 228 236 246 252 255 256 256 255 253 250 248 247 249 251 255 259 262 265 267 268 270 271 272 272 272 272 271 270 268 267 267 267 268 269 271 273 274 275 275 275 275 275 275 276 276 276 276 276 276 277 277 278 279 280 281 282 284 285 286 286 287 288 288 288 288 288 288
214 212 212 213 213 214 215 212 208 206 208 210 211 212 214 218 221 222 225 232 240 246 249 250 250 251 252 251 249 249 252 256 261 265 268 271 272 274 275 276 276 277 277 277 276 275 273 272 271 270 269 269 270 272 273 274 275 275 274 274 273 273 273 273 274 275 276 277 278 279 281 282 284 285 286 286 287 288 288 288 288 288 288 287 287
215 214 214 214 213 214 214 211 208 208 209 210 211 212 214 217 219 221 225 229 233 239 244 246 247 249 251 250 250 252 255 260 266 269 272 275 276 278 281 283 284 284 283 282 281 279 278 276 275 274 273 272 272 272 273 273 273 273 273 272 272 272 273 274 275 276 277 278 279 281 283 284 286 286 287 287 288 288 288 287 287 287 287 287 288
216 215 215 214 212 212 212 211 211 211 211 211 211 212 213 214 216 219 223 225 227 236 245 248 248 249 251 251 250 252 257 264 270 275 278 279 280 282 285 288 289 289 289 288 286 284 283 281 280 279 277 276 275 274 272 271 270 270 271 272 273 274 275 276 277 278 279 279 280 282 283 284 285 286 287 287 287 287 287 286 287 287 287 288 288
216 215 214 212 210 210 212 213 214 214 212 211 212 211 210 212 214 216 219 220 224 234 244 245 244 247 252 254 254 256 264 272 278 283 285 284 284 286 288 288 288 289 289 289 288 287 287 287 286 285 283 281 279 277 275 273 272 271 271 272 273 275 276 278 279 280 280 280 281 281 282 283 284 285 286 286 286 286 286 286 286 287 288 289 290
216 214 213 212 211 212 214 215 215 214 212 211 211 210 210 213 215 216 217 220 226 234 241 242 241 243 251 259 265 272 279 284 288 291 291 290 291 294 295 292 289 288 287 286 286 286 286 286 286 286 286 285 284 282 280 279 278 276 275 274 275 276 277 278 280 281 281 281 280 280 281 282 283 284 285 285 285 285 286 286 287 288 290 291 292
217 214 213 213 213 214 214 214 212 211 211 210 210 211 212 214 214 214 217 223 228 234 240 246 250 252 255 262 269 277 283 287 289 290 290 289 289 292 292 291 289 288 287 287 286 286 285 285 284 284 284 285 285 285 284 283 282 280 279 278 277 277 278 279 281 282 283 283 283 283 283 284 284 285 285 285 285 286 286 287 289 290 291 292 292
219 216 214 213 214 214 213 211 210 211 212 212 212 212 212 212 211 213 218 225 229 234 239 245 250 253 257 262 269 275 280 283 284 284 285 285 284 285 286 285 284 284 285 286 287 288 287 287 286 285 285 285 285 286 285 284 283 281 280 279 278 277 278 279 280 282 284 285 286 287 287 286 286 286 286 286 286 287 287 288 289 291 291 292 292
220 219 217 215 214 213 212 210 210 212 213 213 212 211 209 208 209 213 219 226 230 234 238 243 247 250 254 259 265 273 278 281 281 283 286 286 285 285 286 285 284 282 281 280 282 284 286 287 286 285 285 285 285 285 285 284 282 281 280 279 279 278 279 280 281 282 284 285 286 287 287 286 286 286 286 287 287 288 288 289 289 290 290 291 290
221 221 220 217 216 215 213 211 211 213 214 214 213 211 209 207 207 209 216 226 233 237 241 244 248 251 254 258 263 271 277 280 282 286 289 288 286 287 288 287 285 284 282 280 280 282 284 284 283 283 283 283 283 283 283 283 282 280 279 279 280 280 281 282 283 283 284 285 285 286 286 285 286 287 288 288 289 289 289 289 289 289 289 289 288
221 223 222 220 219 218 216 214 214 215 216 216 216 214 211 208 207 213 222 232 238 242 244 244 247 252 257 262 267 272 276 278 280 283 285 284 284 287 288 288 288 287 286 286 288 288 287 286 283 282 281 281 281 280 280 280 280 279 278 278 280 282 283 284 285 284 284 285 285 285 285 285 286 287 288 289 290 290 290 289 289 289 289 288 287
221 223 224 223 221 220 220 220 220 219 220 220 219 216 213 211 213 220 230 238 242 244 246 248 250 256 261 266 271 274 276 277 278 280 281 282 283 285 287 288 289 288 288 290 291 291 289 288 286 283 281 281 280 279 278 278 277 277 278 279 281 282 284 285 285 285 284 284 284 284 285 286 287 288 289 289 290 290 289 289 290 290 289 288 288
221 223 224 225 224 223 222 223 223 223 224 224 222 219 220 222 224 227 233 238 241 243 247 252 256 260 264 268 271 273 275 276 277 278 280 282 283 283 284 285 285 286 287 289 290 290 288 286 284 283 282 280 279 277 276 276 276 277 279 280 282 283 285 286 285 284 283 283 283 284 284 285 286 287 288 289 289 289 288 289 290 290 289 288 287
221 223 224 225 226 226 225 225 224 225 226 227 225 224 227 232 235 237 240 243 244 247 250 254 258 262 265 268 270 272 273 275 275 276 278 280 282 283 284 286 286 287 288 289 290 290 288 286 283 282 280 278 275 274 274 275 276 278 279 281 282 284 285 286 285 283 282 282 282 282 283 284 285 286 287 287 287 287 288 289 290 290 289 288 288
222 224 225 226 227 228 228 229 228 227 228 229 229 229 232 236 239 242 244 247 250 252 255 257 260 263 266 269 271 272 273 274 274 275 276 277 280 282 285 287 288 289 290 290 290 290 288 286 284 281 278 275 273 272 273 275 276 278 279 281 282 284 284 284 283 282 282 281 281 280 281 283 284 284 285 285 285 286 287 288 289 289 289 289 289
222 224 225 226 227 228 230 231 232 231 231 231 233 235 237 239 242 244 247 249 252 255 257 260 262 265 267 269 271 272 273 274 274 275 276 277 279 282 284 286 288 290 290 290 288 287 286 285 284 281 279 277 275 274 274 275 276 277 279 280 281 282 282 282 282 282 281 280 279 279 281 282 283 283 283 283 283 284 285 287 288 288 289 290 290
224 225 226 227 228 229 230 232 234 234 234 234 236 238 240 243 245 247 249 251 253 256 259 261 264 266 267 269 270 271 272 273 274 275 276 277 279 281 282 285 287 288 287 285 284 284 283 284 283 282 280 279 277 276 275 275 275 276 277 278 279 280 280 280 280 281 280 280 279 280 281 282 282 282 281 281 281 282 284 285 286 287 288 289 290
227 228 228 229 229 230 231 233 235 236 238 239 240 241 243 245 247 249 251 253 255 257 260 262 263 265 266 268 270 271 272 273 274 275 276 277 278 279 281 282 282 279 275 274 276 279 280 281 281 280 279 278 277 275 274 273 273 274 274 275 276 277 277 278 279 279 279 279 280 281 282 281 281 280 279 279 280 282 283 284 286 287 287 287 288
Height
10941 10946 10950 10951 10952 10952 10953 10955 10956 10957 10959 10960 10961 10963 10964 10964 10964 10965 10966 10966 10967 10968 10969 10970 10971 10971 10972 10972 10973 10974 10975 10976 10977 10977 10978 10979 10980 10981 10982 10983 10984 10985 10986 10987 10987 10988 10989 10989 10990 10990 10991 10991 10991 10992 10992 10992 10993 10993 10993 10993 10993 10994 10994 10994 10993 10993 10993 10992 10992 10992 10992 10992 10991 10990 10990 10990 10989 10989 10989 10988 10987 10987 10986 10985 10985
10933 10937 10942 10944 10946 10949 10951 10953 10954 10956 10958 10960 10961 10961 10963 10963 10964 10964 10965 10966 10967 10968 10968 10969 10970 10971 10971 10972 10972 10973 10974 10975 10975 10976 10977 10978 10979 10980 10981 10982 10983 10984 10985 10986 10987 10987 10987 10988 10989 10989 10990 10990 10990 10990 10991 10991 10991 10991 10992 10992 10992 10992 10992 10992 10992 10992 10991 10991 10991 10990 10990 10990 10989 10988 10988 10988 10988 10987 10986 10985 10985 10984 10983 10983 10982
10925 10924 10927 10932 10937 10943 10947 10950 10952 10954 10956 10958 10959 10960 10961 10962 10963 10964 10964 10965 10966 10967 10968 10969 10969 10970 10970 10971 10971 10972 10973 10973 10974 10975 10975 10976 10977 10978 10979 10980 10982 10983 10984 10984 10985 10986 10986 10987 10987 10988 10989 10989 10989 10989 10989 10989 10989 10990 10990 10990 10990 10991 10991 10991 10990 10990 10989 10989 10989 10989 10988 10988 10987 10986 10986 10986 10985 10984 10984 10983 10982 10981 10981 10980 10979
10922 10920 10921 10927 10933 10938 10943 10947 10950 10951 10953 10955 10957 10958 10959 10960 10962 10963 10964 10964 10965 10966 10967 10968 10968 10969 10969 10969 10970 10970 10971 10972 10972 10973 10974 10975 10976 10977 10978 10979 10980 10981 10982 10983 10983 10984 10984 10984 10985 10986 10987 10987 10987 10987 10987 10987 10987 10988 10988 10988 10988 10989 10989 10989 10988 10988 10987 10987 10987 10987 10986 10986 10985 10984 10984 10983 10982 10982 10981 10980 10979 10979 10978 10977 10976
10920 10921 10925 10930 10933 10934 10936 10938 10940 10943 10946 10950 10953 10955 10957 10958 10959 10961 10962 10963 10963 10964 10965 10966 10966 10966 10967 10967 10968 10969 10969 10970 10971 10971 10972 10973 10975 10976 10976 10977 10978 10979 10980 10980 10981 10981 10982 10982 10983 10984 10984 10984 10985 10985 10985 10985 10985 10985 10986 10986 10986 10986 10986 10986 10986 10985 10985 10984 10984 10984 10984 10983 10983 10982 10982 10981 10980 10979 10978 10977 10977 10976 10975 10974 10973
10914 10919 10924 10927 10928 10929 10931 10931 10931 10935 10941 10946 10950 10951 10951 10952 10954 10956 10957 10957 10957 10957 10960 10960 10961 10962 10964 10965 10966 10967 10967 10968 10969 10970 10971 10972 10973 10974 10975 10975 10975 10976 10977 10977 10978 10979 10979 10980 10981 10981 10981 10982 10982 10982 10983 10982 10982 10982 10983 10983 10983 10983 10983 10983 10983 10982 10982 10981 10981 10981 10981 10981 10980 10980 10979 10978 10977 10976 10975 10974 10974 10973 10972 10971 10970
10904 10910 10913 10916 10918 10923 10927 10928 10929 10932 10936 10940 10942 10941 10940 10942 10944 10945 10946 10946 10948 10950 10952 10953 10954 10957 10960 10962 10963 10964 10965 10966 10967 10968 10969 10969 10969 10970 10972 10972 10972 10972 10973 10974 10975 10976 10977 10978 10978 10978 10979 10979 10979 10980 10979 10979 10979 10980 10980 10980 10980 10980 10980 10981 10980 10979 10979 10979 10978 10978 10978 10978 10978 10977 10976 10975 10974 10973 10972 10972 10971 10969 10968 10967 10966
10897 10902 10905 10907 10911 10917 10922 10924 10925 10927 10929 10929 10931 10934 10935 10935 10936 10937 10939 10941 10945 10947 10949 10950 10952 10954 10957 10959 10960 10962 10963 10963 10964 10964 10965 10966 10966 10968 10969 10969 10969 10970 10970 10971 10972 10973 10974 10975 10975 10975 10976 10976 10977 10977 10976 10977 10977 10978 10978 10978 10977 10977 10978 10978 10977 10977 10977 10976 10976 10976 10976 10975 10975 10974 10973 10972 10971 10970 10969 10968 10967 10965 10963 10962 10961
10896 10901 10904 10904 10907 10912 10917 10919 10921 10923 10925 10925 10927 10932 10933 10931 10931 10934 10937 10940 10943 10945 10947 10949 10950 10952 10953 10955 10957 10958 10960 10960 10960 10961 10962 10963 10964 10966 10966 10966 10967 10967 10967 10968 10969 10970 10971 10972 10972 10973 10973 10974 10973 10973 10974 10975 10975 10975 10975 10975 10974 10975 10975 10975 10974 10974 10974 10974 10973 10973 10973 10973 10972 10971 10970 10969 10968 10967 10965 10964 10962 10961 10959 10958 10956
10899 10905 10905 10904 10906 10910 10913 10915 10917 10919 10921 10922 10924 10927 10927 10927 10929 10932 10935 10937 10940 10942 10944 10946 10948 10949 10951 10952 10954 10955 10956 10957 10958 10959 10960 10961 10962 10964 10964 10964 10965 10965 10965 10965 10966 10967 10968 10969 10970 10970 10971 10971 10970 10970 10971 10973 10973 10972 10972 10972 10972 10972 10971 10971 10971 10971 10970 10970 10970 10970 10970 10969 10968 10967 10966 10965 10963 10962 10961 10959 10957 10955 10954 10953 10952
10901 10904 10900 10900 10905 10908 10909 10911 10913 10916 10918 10919 10920 10923 10924 10925 10926 10929 10931 10934 10936 10939 10941 10943 10945 10947 10948 10949 10950 10952 10953 10954 10955 10956 10957 10958 10959 10961 10961 10962 10962 10963 10963 10963 10964 10965 10966 10966 10967 10967 10968 10969 10968 10968 10968 10969 10969 10969 10969 10969 10969 10968 10968 10967 10967 10967 10966 10966 10965 10965 10965 10965 10964 10962 10961 10960 10959 10957 10956 10955 10953 10951 10949 10948 10947
10899 10898 10891 10893 10899 10902 10904 10907 10909 10912 10915 10917 10918 10920 10921 10922 10923 10925 10928 10930 10933 10935 10938 10941 10943 10944 10945 10946 10947 10948 10950 10951 10953 10954 10955 10955 10956 10957 10958 10959 10960 10961 10961 10961 10962 10963 10963 10963 10964 10964 10964 10965 10964 10964 10965 10965 10965 10965 10966 10966 10965 10965 10964 10964 10963 10962 10962 10961 10960 10960 10960 10960 10959 10958 10956 10955 10954 10953 10951 10950 10948 10946 10945 10943 10942
10894 10888 10881 10886 10892 10895 10900 10904 10906 10910 10915 10916 10917 10918 10918 10919 10921 10923 10925 10928 10931 10933 10936 10939 10941 10942 10942 10943 10944 10945 10947 10948 10950 10952 10953 10953 10954 10954 10955 10956 10957 10958 10958 10959 10960 10960 10960 10960 10960 10960 10961 10961 10960 10960 10961 10961 10961 10961 10962 10962 10961 10960 10960 10959 10959 10958 10957 10956 10955 10955 10955 10955 10954 10953 10952 10951 10949 10947 10946 10944 10943 10941 10939 10938 10936
10884 10876 10873 10879 10884 10888 10895 10900 10904 10909 10913 10914 10915 10915 10915 10916 10918 10921 10923 10926 10929 10932 10934 10936 10938 10939 10939 10940 10941 10942 10943 10945 10947 10949 10949 10949 10950 10951 10952 10953 10954 10955 10956 10957 10957 10957 10957 10957 10957 10957 10957 10957 10957 10957 10957 10957 10957 10957 10957 10957 10957 10956 10955 10955 10954 10953 10952 10951 10950 10950 10950 10949 10949 10947 10946 10945 10944 10942 10940 10938 10936 10934 10933 10932 10930
10871 10867 10867 10873 10877 10882 10889 10895 10899 10904 10907 10908 10909 10909 10910 10912 10915 10918 10920 10923 10927 10929 10930 10931 10933 10935 10936 10937 10937 10938 10940 10941 10943 10944 10945 10945 10946 10947 10948 10949 10950 10951 10952 10953 10954 10954 10954 10954 10954 10953 10953 10953 10953 10953 10953 10953 10953 10952 10952 10952 10952 10952 10951 10951 10950 10949 10948 10947 10946 10945 10944 10943 10942 10941 10940 10939 10937 10936 10934 10932 10930 10928 10926 10926 10924
10863 10862 10863 10867 10870 10876 10882 10888 10893 10897 10899 10900 10900 10901 10904 10907 10910 10914 10917 10920 10923 10924 10924 10926 10928 10931 10933 10933 10934 10934 10936 10937 10939 10940 10941 10941 10942 10944 10945 10946 10947 10948 10949 10950 10950 10950 10950 10950 10949 10949 10949 10949 10950 10950 10949 10949 10948 10948 10947 10947 10947 10947 10947 10947 10946 10945 10943 10942 10941 10940 10939 10937 10936 10934 10933 10932 10930 10929 10927 10926 10924 10922 10920 10920 10918
10859 10860 10861 10863 10866 10871 10876 10880 10885 10889 10891 10891 10892 10895 10900 10903 10906 10910 10914 10918 10920 10921 10921 10923 10926 10929 10931 10931 10930 10931 10932 10933 10935 10936 10937 10938 10939 10940 10941 10942 10943 10944 10945 10945 10945 10945 10945 10945 10945 10945 10945 10945 10945 10945 10945 10944 10944 10943 10943 10943 10943 10942 10942 10942 10941 10940 10939 10937 10936 10934 10933 10931 10929 10928 10926 10924 10923 10922 10921 10919 10918 10916 10915 10914 10913
10857 10858 10859 10861 10863 10867 10871 10874 10878 10882 10884 10885 10887 10891 10895 10898 10901 10906 10909 10913 10916 10916 10917 10919 10923 10925 10926 10927 10926 10926 10927 10929 10931 10932 10933 10934 10935 10936 10937 10938 10939 10940 10940 10940 10941 10941 10941 10941 10941 10941 10940 10940 10940 10940 10940 10940 10939 10939 10939 10938 10938 10938 10937 10937 10936 10935 10934 10932 10930 10929 10927 10925 10923 10921 10920 10917 10916 10915 10914 10913 10912 10910 10909 10908 10907
10855 10856 10857 10859 10861 10864 10867 10869 10872 10875 10878 10880 10882 10885 10889 10893 10896 10900 10903 10906 10908 10910 10911 10914 10917 10919 10920 10921 10921 10922 10923 10924 10926 10927 10929 10930 10931 10932 10933 10934 10934 10935 10935 10936 10936 10936 10937 10937 10936 10936 10936 10935 10935 10935 10935 10935 10934 10934 10934 10934 10933 10933 10932 10932 10931 10930 10928 10927 10925 10923 10921 10919 10917 10915 10914 10912 10910 10909 10908 10907 10905 10904 10903 10902 10901
10849 10850 10852 10855 10857 10860 10862 10865 10868 10870 10873 10876 10878 10881 10884 10887 10891 10894 10896 10899 10901 10903 10905 10909 10911 10913 10914 10916 10917 10918 10919 10920 10921 10923 10924 10925 10926 10927 10928 10929 10929 10930 10930 10931 10931 10931 10931 10932 10931 10931 10931 10930 10930 10930 10930 10929 10929 10929 10929 10928 10928 10927 10927 10926 10925 10924 10923 10921 10919 10918 10916 10914 10911 10909 10908 10906 10904 10902 10901 10900 10899 10898 10897 10896 10895
10840 10842 10846 10851 10854 10856 10858 10860 10863 10866 10869 10872 10875 10877 10879 10882 10885 10888 10891 10893 10895 10898 10900 10903 10905 10907 10909 10911 10913 10914 10915 10916 10917 10918 10919 10920 10921 10922 10923 10924 10924 10924 10925 10925 10926 10926 10926 10926 10926 10926 10925 10925 10925 10924 10924 10924 10924 10923 10923 10923 10922 10922 10921 10920 10919 10918 10917 10915 10913 10912 10910 10908 10906 10904 10902 10901 10899 10897 10895 10894 10893 10892 10891 10890 10890
10832 10835 10841 10846 10850 10853 10854 10856 10859 10862 10865 10868 10870 10872 10874 10877 10880 10883 10885 10887 10890 10892 10895 10897 10900 10902 10904 10906 10908 10909 10910 10911 10912 10913 10914 10915 10915 10916 10917 10918 10919 10919 10919 10920 10920 10920 10920 10920 10920 10920 10919 10919 10919 10918 10918 10918 10918 10918 10917 10917 10916 10915 10915 10914 10913 10911 10910 10909 10907 10905 10903 10902 10900 10898 10897 10895 10894 10892 10890 10889 10887 10886 10885 10885 10884
10826 10829 10834 10840 10844 10848 10850 10853 10855 10857 10859 10861 10864 10866 10868 10870 10873 10876 10878 10880 10883 10886 10889 10891 10893 10896 10898 10900 10902 10904 10905 10907 10908 10908 10909 10910 10910 10910 10911 10912 10913 10914 10914 10915 10915 10915 10915 10914 10914 10914 10913 10913 10913 10913 10912 10912 10912 10911 10911 10910 10910 10909 10908 10907 10906 10905 10904 10902 10900 10898 10896 10894 10893 10892 10890 10889 10888 10887 10886 10884 10883 10881 10880 10879 10878
10821 10824 10827 10831 10836 10840 10844 10847 10849 10850 10852 10854 10857 10859 10861 10863 10866 10868 10871 10873 10876 10879 10882 10885 10887 10889 10891 10893 10895 10897 10899 10901 10902 10903 10904 10904 10905 10905 10906 10907 10908 10909 10909 10910 10910 10910 10910 10909 10908 10907 10907 10907 10907 10906 10906 10905 10905 10904 10904 10903 10903 10902 10901 10900 10899 10898 10897 10895 10893 10891 10889 10887 10886 10885 10884 10883 10882 10881 10880 10879 10878 10876 10875 10874 10873
10817 10820 10822 10824 10827 10831 10835 10839 10842 10843 10845 10848 10851 10853 10855 10857 10860 10862 10865 10868 10870 10873 10876 10879 10881 10883 10885 10887 10888 10890 10892 10893 10895 10896 10898 10899 10900 10900 10901 10902 10903 10903 10903 10903 10904 10904 10903 10902 10902 10901 10901 10900 10900 10899 10899 10899 10898 10898 10897 10897 10896 10896 10895 10893 10892 10891 10889 10888 10886 10884 10882 10880 10879 10878 10877 10876 10875 10875 10874 10873 10872 10871 10870 10868 10867
10811 10815 10818 10820 10821 10823 10827 10832 10836 10838 10841 10844 10847 10849 10851 10853 10855 10858 10860 10863 10865 10868 10870 10873 10875 10877 10879 10881 10882 10884 10885 10887 10889 10890 10892 10893 10894 10895 10896 10896 10897 10897 10897 10897 10897 10897 10896 10895 10895 10895 10894 10894 10893 10893 10893 10892 10892 10892 10891 10891 10890 10889 10888 10887 10885 10884 10882 10880 10879 10877 10875 10874 10873 10872 10871 10870 10869 10868 10868 10867 10866 10865 10864 10862 10861
10805 10810 10813 10816 10818 10820 10823 10827 10831 10835 10838 10840 10842 10844 10846 10849 10852 10854 10857 10859 10862 10864 10866 10868 10870 10872 10874 10876 10878 10879 10881 10882 10884 10885 10886 10887 10888 10889 10890 10890 10890 10890 10890 10890 10890 10890 10889 10889 10888 10888 10888 10887 10887 10887 10887 10886 10886 10885 10885 10884 10883 10883 10882 10880 10879 10877 10875 10874 10872 10870 10869 10867 10866 10865 10865 10864 10863 10862 10861 10860 10859 10858 10857 10856 10854
10801 10805 10809 10812 10814 10817 10820 10824 10828 10831 10833 10835 10837 10839 10842 10845 10848 10850 10853 10856 10859 10861 10863 10865 10866 10868 10870 10871 10872 10874 10875 10877 10878 10879 10880 10881 10882 10882 10883 10883 10883 10883 10883 10883 10883 10882 10882 10882 10882 10882 10882 10881 10881 10880 10880 10879 10879 10878 10878 10877 10876 10875 10874 10873 10871 10870 10868 10867 10865 10864 10862 10861 10860 10859 10858 10858 10857 10856 10855 10854 10853 10852 10851 10850 10849
10797 10800 10804 10807 10809 10811 10815 10819 10823 10826 10828 10830 10832 10835 10838 10840 10843 10846 10849 10852 10855 10857 10859 10861 10862 10864 10865 10866 10867 10868 10869 10870 10871 10872 10873 10873 10874 10875 10875 10875 10875 10875 10875 10875 10875 10875 10875 10875 10875 10875 10875 10874 10874 10873 10873 10872 10872 10871 10871 10870 10869 10868 10867 10865 10864 10863 10861 10860 10858 10857 10856 10855 10854 10853 10852 10851 10850 10849 10848 10847 10846 10845 10845 10844 10843
10792 10794 10797 10800 10803 10806 10809 10812 10816 10820 10823 10825 10827 10830 10832 10834 10837 10840 10844 10847 10850 10853 10855 10856 10858 10859 10860 10861 10862 10862 10863 10863 10864 10865 10866 10866 10867 10868 10868 10868 10868 10868 10868 10868 10869 10868 10868 10868 10868 10868 10868 10867 10867 10866 10866 10865 10865 10864 10863 10862 10861 10860 10859 10858 10857 10855 10854 10853 10852 10851 10850 10849 10848 10847 10846 10845 10844 10843 10842 10841 10841 10840 10839 10838 10837
10786 10789 10791 10794 10798 10801 10804 10807 10810 10814 10817 10821 10823 10826 10828 10830 10832 10835 10838 10842 10846 10848 10850 10852 10853 10854 10855 10856 10856 10857 10857 10858 10858 10859 10860 10860 10861 10861 10861 10861 10861 10861 10861 10861 10861 10861 10861 10861 10861 10860 10860 10860 10859 10859 10859 10858 10857 10857 10856 10855 10854 10853 10852 10850 10849 10848 10847 10847 10846 10845 10844 10844 10843 10842 10840 10839 10838 10837 10837 10836 10835 10834 10833 10832 10831
10780 10783 10786 10789 10793 10796 10799 10802 10805 10809 10813 10816 10819 10822 10825 10827 10829 10831 10834 10837 10841 10844 10846 10847 10849 10850 10850 10851 10852 10852 10853 10853 10853 10854 10854 10854 10854 10855 10855 10854 10854 10854 10853 10853 10853 10853 10853 10853 10853 10852 10852 10852 10852 10851 10851 10850 10850 10849 10848 10847 10846 10845 10844 10844 10843 10842 10841 10841 10840 10840 10839 10838 10837 10836 10835 10834 10833 10832 10831 10830 10829 10828 10827 10826 10825
10774 10777 10781 10784 10788 10791 10794 10797 10801 10804 10808 10812 10814 10817 10820 10822 10824 10826 10829 10832 10836 10839 10841 10843 10844 10845 10846 10846 10847 10848 10848 10848 10848 10849 10848 10848 10848 10848 10848 10847 10847 10846 10846 10845 10845 10845 10844 10844 10844 10844 10844 10844 10844 10843 10843 10842 10842 10841 10840 10840 10839 10838 10838 10837 10837 10836 10836 10835 10835 10834 10834 10833 10832 10831 10830 10829 10828 10827 10826 10825 10823 10822 10821 10819 10818
10768 10772 10776 10779 10783 10786 10788 10792 10795 10799 10803 10806 10809 10811 10814 10816 10818 10820 10823 10827 10830 10833 10836 10838 10839 10840 10841 10841 10842 10842 10842 10842 10843 10843 10842 10842 10842 10841 10841 10840 10839 10839 10838 10838 10838 10837 10837 10837 10837 10837 10837 10836 10836 10835 10835 10835 10834 10834 10833 10833 10833 10832 10832 10832 10831 10831 10830 10830 10829 10829 10828 10827 10827 10826 10825 10823 10822 10821 10820 10818 10817 10815 10814 10813 10811
10763 10767 10770 10773 10777 10780 10783 10786 10789 10793 10796 10799 10802 10805 10808 10810 10812 10815 10818 10821 10824 10828 10830 10833 10834 10835 10835 10835 10836 10836 10836 10836 10836 10836 10836 10835 10835 10834 10834 10833 10833 10833 10832 10832 10832 10832 10831 10831 10831 10830 10830 10830 10829 10829 10828 10828 10828 10828 10827 10827 10827 10827 10826 10826 10826 10825 10825 10824 10824 10823 10822 10822 10821 10820 10818 10817 10816 10815 10813 10812 10810 10809 10808 10806 10805
10757 10761 10764 10767 10771 10774 10777 10781 10784 10787 10790 10793 10796 10799 10802 10804 10808 10812 10814 10816 10819 10822 10824 10826 10828 10829 10829 10829 10829 10829 10830 10830 10830 10829 10829 10829 10828 10828 10828 10828 10828 10828 10828 10827 10827 10827 10827 10826 10826 10826 10825 10825 10824 10823 10823 10823 10822 10822 10822 10822 10822 10822 10821 10821 10820 10820 10819 10819 10818 10817 10816 10816 10815 10813 10812 10811 10810 10808 10807 10805 10804 10803 10801 10800 10799
10751 10755 10758 10761 10765 10767 10771 10774 10777 10781 10784 10787 10789 10793 10796 10799 10803 10807 10810 10811 10814 10816 10818 10820 10821 10821 10821 10821 10822 10822 10823 10823 10823 10823 10823 10823 10823 10823 10824 10824 10824 10824 10823 10823 10823 10823 10823 10822 10822 10821 10821 10820 10820 10819 10818 10818 10818 10818 10817 10817 10817 10816 10816 10816 10815 10815 10814 10813 10812 10811 10810 10809 10808 10807 10806 10804 10803 10802 10800 10799 10798 10796 10795 10794 10792
10744 10749 10753 10756 10758 10761 10764 10768 10771 10774 10777 10780 10783 10788 10792 10795 10798 10800 10802 10805 10807 10809 10811 10811 10811 10812 10813 10814 10815 10816 10816 10817 10817 10817 10818 10818 10818 10819 10819 10819 10819 10819 10819 10819 10819 10819 10819 10818 10818 10818 10817 10816 10815 10815 10814 10814 10813 10813 10812 10812 10811 10811 10811 10810 10810 10809 10808 10807 10806 10805 10804 10803 10802 10801 10799 10798 10797 10795 10794 10792 10791 10790 10788 10787 10785
10738 10743 10747 10750 10753 10756 10758 10761 10764 10768 10771 10775 10779 10783 10787 10789 10791 10793 10796 10798 10799 10801 10802 10802 10803 10804 10806 10807 10809 10810 10811 10811 10812 10813 10813 10813 10814 10814 10815 10815 10815 10815 10815 10815 10815 10815 10814 10814 10814 10813 10813 10812 10811 10811 10810 10810 10809 10808 10808 10807 10806 10806 10805 10804 10804 10803 10802 10801 10800 10799 10798 10797 10796 10794 10793 10791 10790 10789 10787 10786 10784 10783 10781 10779 10777
10732 10737 10741 10745 10747 10750 10753 10755 10758 10762 10766 10770 10774 10778 10781 10783 10785 10787 10788 10789 10790 10791 10792 10794 10796 10798 10800 10801 10802 10803 10805 10806 10806 10807 10807 10808 10808 10809 10809 10810 10810 10810 10810 10810 10810 10810 10809 10809 10808 10808 10808 10808 10807 10807 10806 10805 10805 10804 10803 10802 10801 10800 10800 10799 10798 10797 10796 10795 10794 10793 10792 10790 10789 10788 10786 10785 10783 10782 10781 10779 10777 10775 10773 10771 10769
10727 10731 10735 10739 10742 10744 10747 10749 10753 10757 10760 10764 10767 10770 10773 10775 10777 10779 10780 10780 10781 10782 10784 10785 10788 10791 10793 10794 10795 10796 10798 10799 10799 10800 10801 10801 10802 10802 10802 10803 10804 10804 10805 10805 10804 10804 10804 10803 10803 10802 10802 10802 10801 10801 10801 10800 10799 10799 10798 10797 10796 10795 10794 10794 10793 10791 10790 10789 10788 10786 10785 10783 10782 10780 10779 10778 10777 10775 10774 10772 10770 10768 10765 10763 10761
10721 10725 10729 10733 10736 10739 10741 10743 10747 10751 10754 10757 10760 10762 10764 10765 10767 10770 10772 10773 10774 10775 10776 10777 10779 10782 10784 10786 10787 10788 10789 10790 10792 10794 10795 10796 10796 10796 10796 10797 10798 10798 10799 10799 10798 10798 10798 10797 10797 10796 10795 10795 10795 10794 10794 10793 10793 10792 10791 10790 10790 10789 10788 10788 10787 10785 10784 10782 10781 10779 10777 10775 10773 10772 10771 10770 10769 10768 10766 10765 10763 10760 10758 10755 10752
10714 10718 10723 10727 10731 10733 10735 10737 10741 10744 10747 10751 10754 10756 10756 10757 10759 10761 10763 10766 10768 10769 10769 10769 10771 10773 10775 10778 10780 10781 10782 10783 10786 10789 10791 10792 10792 10792 10792 10792 10792 10792 10793 10793 10793 10792 10791 10790 10790 10789 10788 10788 10787 10787 10786 10785 10785 10784 10783 10783 10782 10781 10781 10780 10779 10777 10776 10774 10773 10771 10769 10767 10765 10763 10762 10762 10760 10759 10757 10756 10754 10752 10749 10747 10745
10706 10710 10715 10721 10726 10729 10731 10733 10736 10738 10741 10744 10747 10749 10750 10750 10751 10753 10755 10758 10761 10762 10763 10763 10764 10765 10767 10770 10773 10774 10775 10777 10780 10782 10784 10786 10787 10787 10786 10786 10787 10787 10787 10787 10787 10786 10785 10783 10782 10781 10780 10779 10779 10778 10777 10777 10776 10775 10775 10774 10773 10773 10772 10772 10770 10768 10767 10765 10764 10762 10759 10758 10756 10755 10754 10753 10751 10750 10748 10746 10744 10742 10740 10738 10736
10700 10703 10709 10715 10720 10723 10726 10729 10731 10733 10735 10737 10740 10742 10744 10744 10744 10745 10747 10750 10753 10755 10756 10757 10758 10759 10761 10763 10766 10768 10769 10771 10773 10775 10777 10779 10780 10781 10781 10781 10780 10780 10780 10780 10780 10779 10778 10776 10775 10774 10772 10770 10769 10768 10768 10768 10767 10766 10765 10764 10764 10763 10763 10763 10762 10760 10758 10756 10754 10752 10750 10749 10747 10746 10745 10744 10742 10741 10739 10737 10735 10733 10730 10729 10727
10693 10697 10703 10709 10714 10717 10720 10723 10725 10727 10729 10732 10734 10736 10738 10738 10738 10739 10740 10742 10745 10747 10749 10750 10751 10752 10754 10757 10760 10762 10763 10764 10766 10768 10769 10770 10771 10772 10773 10774 10774 10773 10772 10772 10772 10771 10770 10768 10766 10765 10763 10761 10760 10758 10757 10757 10757 10756 10756 10755 10754 10754 10754 10754 10752 10751 10749 10747 10745 10743 10741 10740 10738 10737 10736 10735 10733 10731 10729 10728 10726 10724 10722 10720 10718
10688 10692 10697 10702 10707 10711 10714 10716 10719 10721 10723 10726 10728 10730 10732 10733 10734 10734 10735 10737 10739 10741 10743 10745 10746 10746 10748 10750 10752 10755 10756 10757 10759 10760 10761 10762 10761 10761 10763 10765 10765 10764 10763 10763 10762 10761 10760 10758 10756 10754 10753 10752 10751 10749 10747 10747 10747 10747 10746 10745 10744 10744 10744 10743 10742 10741 10739 10738 10736 10734 10732 10731 10729 10728 10727 10726 10724 10722 10720 10719 10718 10716 10714 10711 10709
10683 10686 10690 10695 10700 10704 10707 10710 10712 10715 10717 10719 10722 10724 10725 10727 10728 10729 10730 10731 10733 10735 10736 10738 10739 10740 10741 10742 10743 10744 10746 10748 10749 10750 10752 10753 10754 10754 10755 10756 10755 10754 10753 10752 10750 10749 10748 10746 10745 10743 10742 10741 10741 10739 10738 10737 10737 10736 10736 10735 10735 10734 10734 10733 10732 10731 10730 10728 10727 10725 10723 10721 10720 10719 10719 10717 10715 10713 10711 10710 10709 10707 10705 10703 10700
10676 10679 10683 10686 10690 10695 10698 10702 10705 10707 10710 10712 10714 10716 10718 10719 10721 10722 10722 10724 10725 10726 10727 10729 10730 10731 10732 10732 10733 10734 10736 10738 10739 10741 10742 10743 10745 10746 10747 10747 10747 10746 10742 10739 10737 10736 10735 10734 10734 10733 10732 10731 10731 10730 10728 10727 10727 10726 10726 10725 10725 10724 10724 10723 10722 10721 10720 10718 10716 10715 10713 10712 10711 10710 10709 10708 10706 10704 10702 10701 10700 10698 10696 10694 10691
10668 10672 10675 10678 10682 10686 10689 10693 10696 10698 10701 10704 10706 10707 10709 10711 10712 10714 10715 10716 10717 10717 10718 10719 10720 10721 10721 10722 10723 10724 10726 10727 10728 10730 10731 10733 10735 10737 10738 10741 10744 10743 10735 10727 10724 10724 10724 10723 10722 10721 10721 10720 10720 10719 10718 10717 10717 10716 10716 10716 10715 10714 10714 10714 10713 10712 10710 10708 10706 10705 10703 10702 10700 10700 10700 10699 10697 10695 10693 10692 10690 10689 10687 10685 10682
10660 10664 10667 10670 10674 10677 10680 10683 10686 10689 10692 10695 10697 10698 10700 10702 10704 10705 10707 10707 10708 10708 10709 10710 10711 10711 10712 10712 10713 10714 10716 10716 10717 10718 10719 10721 10723 10725 10728 10732 10736 10734 10727 10719 10716 10715 10713 10712 10711 10710 10709 10708 10708 10708 10707 10707 10707 10707 10707 10706 10705 10705 10704 10703 10703 10702 10700 10698 10696 10695 10692 10690 10690 10690 10691 10689 10687 10684 10682 10681 10680 10680 10678 10676 10673